TimeCDT,TemperatureF,Dew PointF,Humidity,Sea Level PressureIn,VisibilityMPH,Wind Direction,Wind SpeedMPH,Gust SpeedMPH,PrecipitationIn,Events,Conditions,WindDirDegrees,DateUTC
12:12 AM,42.4,22.3,45,29.89,10.0,South,6.9,-,N/A,,Clear,190,2012-10-08 05:12:00
12:32 AM,42.3,22.8,46,29.88,10.0,South,6.9,-,N/A,,Clear,180,2012-10-08 05:32:00
12:52 AM,42.1,23.0,47,29.88,10.0,South,5.8,-,N/A,,Clear,180,2012-10-08 05:52:00
1:12 AM,41.5,23.0,48,29.87,10.0,Calm,Calm,-,N/A,,Clear,0,2012-10-08 06:12:00
1:32 AM,41.0,23.0,49,29.87,10.0,SSW,4.6,-,N/A,,Clear,200,2012-10-08 06:32:00
1:52 AM,40.6,23.0,49,29.87,10.0,SSW,3.5,-,N/A,,Clear,200,2012-10-08 06:52:00
2:12 AM,40.5,23.4,51,29.86,10.0,South,3.5,-,N/A,,Clear,190,2012-10-08 07:12:00
2:32 AM,40.8,23.7,51,29.86,10.0,South,4.6,-,N/A,,Clear,190,2012-10-08 07:32:00
2:52 AM,40.5,23.9,52,29.85,10.0,South,3.5,-,N/A,,Clear,170,2012-10-08 07:52:00
3:12 AM,39.9,24.1,53,29.85,10.0,SSE,3.5,-,N/A,,Clear,160,2012-10-08 08:12:00
3:32 AM,39.6,24.4,55,29.84,10.0,SE,3.5,-,N/A,,Clear,140,2012-10-08 08:32:00
3:52 AM,39.6,24.6,55,29.84,10.0,SE,3.5,-,N/A,,Clear,140,2012-10-08 08:52:00
4:12 AM,39.6,24.8,56,29.83,10.0,SSE,3.5,-,N/A,,Clear,150,2012-10-08 09:12:00
4:32 AM,39.6,25.2,56,29.83,10.0,SSE,3.5,-,N/A,,Clear,150,2012-10-08 09:32:00
4:52 AM,39.6,25.5,57,29.82,10.0,SSE,4.6,-,N/A,,Clear,150,2012-10-08 09:52:00
5:32 AM,39.6,25.7,58,29.81,10.0,SSE,4.6,-,N/A,,Clear,160,2012-10-08 10:32:00
5:52 AM,39.6,26.1,58,29.81,10.0,South,4.6,-,N/A,,Clear,170,2012-10-08 10:52:00
6:12 AM,39.7,26.2,59,29.80,10.0,South,4.6,-,N/A,,Clear,170,2012-10-08 11:12:00
6:32 AM,40.1,26.4,58,29.80,10.0,South,4.6,-,N/A,,Scattered Clouds,170,2012-10-08 11:32:00
6:52 AM,41.0,26.6,57,29.80,10.0,South,4.6,-,N/A,,Scattered Clouds,180,2012-10-08 11:52:00
7:12 AM,41.5,27.1,57,29.79,10.0,South,6.9,-,N/A,,Mostly Cloudy,190,2012-10-08 12:12:00
7:32 AM,42.1,27.5,56,29.79,10.0,South,5.8,-,N/A,,Overcast,180,2012-10-08 12:32:00
7:52 AM,42.4,27.5,56,29.78,10.0,SSE,4.6,-,N/A,,Overcast,160,2012-10-08 12:52:00
8:12 AM,43.2,28.0,55,29.78,10.0,South,5.8,-,N/A,,Overcast,190,2012-10-08 13:12:00
8:32 AM,43.7,28.4,55,29.78,10.0,SSE,5.8,-,N/A,,Scattered Clouds,160,2012-10-08 13:32:00
8:52 AM,43.9,29.1,56,29.78,10.0,SSE,4.6,-,N/A,,Scattered Clouds,160,2012-10-08 13:52:00
9:12 AM,44.6,29.3,55,29.78,10.0,South,5.8,-,N/A,,Mostly Cloudy,170,2012-10-08 14:12:00
9:32 AM,45.1,29.7,55,29.77,10.0,SSE,5.8,-,N/A,,Overcast,150,2012-10-08 14:32:00
9:52 AM,45.9,30.2,54,29.77,10.0,SSE,3.5,-,N/A,,Overcast,160,2012-10-08 14:52:00
10:12 AM,47.1,30.4,52,29.76,10.0,South,8.1,-,N/A,,Scattered Clouds,170,2012-10-08 15:12:00
10:32 AM,48.6,30.9,51,29.75,10.0,South,8.1,-,N/A,,Scattered Clouds,170,2012-10-08 15:32:00
10:52 AM,50.0,30.9,48,29.74,10.0,SSW,11.5,19.6,N/A,,Scattered Clouds,200,2012-10-08 15:52:00
11:12 AM,51.4,31.1,46,29.73,10.0,South,9.2,19.6,N/A,,Scattered Clouds,170,2012-10-08 16:12:00
11:32 AM,52.5,31.1,44,29.72,10.0,South,15.0,19.6,N/A,,Clear,180,2012-10-08 16:32:00
11:52 AM,54.1,31.3,42,29.72,10.0,South,11.5,18.4,N/A,,Scattered Clouds,170,2012-10-08 16:52:00
12:12 PM,54.7,31.5,41,29.70,10.0,South,10.4,18.4,N/A,,Scattered Clouds,170,2012-10-08 17:12:00
12:32 PM,55.8,31.5,40,29.70,10.0,South,15.0,-,N/A,,Scattered Clouds,180,2012-10-08 17:32:00
12:52 PM,56.5,31.6,39,29.68,10.0,South,17.3,21.9,N/A,,Scattered Clouds,190,2012-10-08 17:52:00
1:12 PM,57.6,32.0,38,29.66,10.0,South,11.5,20.7,N/A,,Scattered Clouds,190,2012-10-08 18:12:00
1:32 PM,59.2,32.0,36,29.65,10.0,South,8.1,18.4,N/A,,Scattered Clouds,180,2012-10-08 18:32:00
1:52 PM,59.9,32.0,35,29.64,10.0,SSW,16.1,23.0,N/A,,Mostly Cloudy,200,2012-10-08 18:52:00
2:12 PM,59.9,32.0,35,29.64,10.0,SSW,9.2,-,N/A,,Mostly Cloudy,210,2012-10-08 19:12:00
2:32 PM,59.9,33.1,36,29.64,10.0,SW,8.1,-,N/A,,Scattered Clouds,220,2012-10-08 19:32:00
2:52 PM,60.1,32.5,35,29.63,10.0,SSW,13.8,17.3,N/A,,Scattered Clouds,210,2012-10-08 19:52:00
3:12 PM,60.4,33.3,36,29.61,10.0,SSW,13.8,19.6,N/A,,Scattered Clouds,200,2012-10-08 20:12:00
3:32 PM,62.8,32.4,32,29.58,10.0,South,13.8,18.4,N/A,,Scattered Clouds,190,2012-10-08 20:32:00
3:52 PM,64.8,32.0,29,29.59,10.0,SSW,15.0,23.0,N/A,,Scattered Clouds,210,2012-10-08 20:52:00
4:12 PM,64.9,32.0,29,29.59,10.0,SW,12.7,27.6,N/A,,Scattered Clouds,220,2012-10-08 21:12:00
4:32 PM,64.8,31.5,29,29.59,10.0,SW,12.7,20.7,N/A,,Mostly Cloudy,220,2012-10-08 21:32:00
4:52 PM,65.3,30.4,27,29.59,10.0,SW,16.1,20.7,N/A,,Mostly Cloudy,220,2012-10-08 21:52:00
5:12 PM,65.3,30.2,27,29.59,10.0,SSW,13.8,18.4,N/A,,Mostly Cloudy,210,2012-10-08 22:12:00
5:32 PM,65.8,30.2,26,29.59,10.0,SW,11.5,17.3,N/A,,Mostly Cloudy,220,2012-10-08 22:32:00
5:52 PM,65.8,30.9,27,29.60,10.0,WSW,9.2,17.3,N/A,,Scattered Clouds,240,2012-10-08 22:52:00
6:12 PM,65.3,31.6,28,29.60,10.0,West,6.9,-,N/A,,Scattered Clouds,270,2012-10-08 23:12:00
6:32 PM,64.4,32.7,31,29.61,10.0,West,5.8,-,N/A,,Mostly Cloudy,280,2012-10-08 23:32:00
6:52 PM,64.4,34.5,33,29.63,10.0,West,11.5,17.3,N/A,,Overcast,260,2012-10-08 23:52:00
7:12 PM,63.5,35.8,36,29.64,10.0,West,10.4,-,N/A,,Mostly Cloudy,280,2012-10-09 00:12:00
7:32 PM,62.6,37.0,39,29.64,10.0,West,5.8,16.1,N/A,,Mostly Cloudy,280,2012-10-09 00:32:00
8:12 PM,61.2,38.7,43,29.67,10.0,West,9.2,17.3,N/A,,Clear,280,2012-10-09 01:12:00
8:32 PM,60.4,39.2,45,29.68,10.0,WNW,9.2,-,N/A,,Mostly Cloudy,290,2012-10-09 01:32:00
8:52 PM,59.9,39.2,46,29.69,10.0,NW,12.7,18.4,N/A,,Mostly Cloudy,310,2012-10-09 01:52:00
9:12 PM,59.0,39.2,48,29.70,10.0,NW,9.2,-,N/A,,Overcast,310,2012-10-09 02:12:00
9:32 PM,57.9,39.2,50,29.71,10.0,NW,13.8,19.6,N/A,,Scattered Clouds,310,2012-10-09 02:32:00
9:52 PM,55.8,39.6,55,29.72,10.0,NW,13.8,20.7,N/A,,Scattered Clouds,320,2012-10-09 02:52:00
10:12 PM,54.9,38.3,54,29.73,10.0,NNW,11.5,16.1,N/A,,Clear,330,2012-10-09 03:12:00
10:52 PM,53.8,37.4,54,29.74,10.0,West,4.6,-,N/A,,Clear,280,2012-10-09 03:52:00
11:12 PM,53.6,36.5,52,29.74,10.0,WNW,5.8,-,N/A,,Clear,290,2012-10-09 04:12:00
11:32 PM,52.9,36.7,54,29.74,10.0,WSW,4.6,-,N/A,,Clear,250,2012-10-09 04:32:00
11:52 PM,52.3,36.5,55,29.74,10.0,WSW,3.5,-,N/A,,Clear,250,2012-10-09 04:52:00